Weather History for Lynchburg, VA

Change the Weather History Date:

Friday, July 19, 2013

  Actual Average Record
Temperature  
Mean Temperature 81 °F 75 °F  
Max Temperature 92 °F 87 °F 98 °F (1942)
Min Temperature 69 °F 64 °F 52 °F (2009)
Degree Days  
Heating Degree Days 0 0  
Month to date heating degree days 0 0  
Since 1 June heating degree days 1 14  
Since 1 July heating degree days 0 0  
Cooling Degree Days 16 10  
Month to date cooling degree days 252 190  
Year to date cooling degree days 642 486  
Since 1 June cooling degree days 507 404  
Growing Degree Days 30 (Base 50)    
Moisture  
Dew Point 72 °F    
Average Humidity 78    
Maximum Humidity 100    
Minimum Humidity 56    
Precipitation  
Precipitation 0.00 in 0.14 in 1.63 in (2007)
Month to date precipitation 3.34 2.64  
Year to date precipitation 30.10 22.95  
Snow  
Snow 0.00 in - - ()
Month to date snowfall 0.0  
Since 1 June snowfall 0.0  
Since 1 July snowfall 0.0  
Snow Depth 0.00 in    
Sea Level Pressure  
Sea Level Pressure 30.05 in    
Wind  
Wind Speed 5 mph (SSW)    
Max Wind Speed 16 mph    
Max Gust Speed 22 mph    
Visibility 5 miles    
Events Fog    
T = Trace of Precipitation, MM = Missing Value Source: NWS Daily Summary

Daily Weather History Graph

Daily Weather History Graph

Search for Another Location

Airport:

Trip Planner

Search our weather history database for the weather conditions in past years. The results will help you decide how hot, cold, wet, or windy it might be!

Date:

Astronomy

Jul. 19, 2013 Rise Set
Actual Time 6:11 AM EDT 8:34 PM EDT
Civil Twilight 5:41 AM EDT 9:04 PM EDT
Nautical Twilight 5:04 AM EDT 9:41 PM EDT
Astronomical Twilight 4:23 AM EDT 10:21 PM EDT
Moon 5:35 PM EDT (7/19) 2:50 AM EDT (7/19)
Length of Visible Light 15h 23m
Length of Day
14h 23m
Waxing Gibbous, 86% of the Moon is Illuminated
Jul 19
Waxing Gibbous
Jul 22
Full
Jul 29
Last Quarter
Aug 6
New
Aug 14
First Quarter

Hourly Weather History & Observations

Time (EDT) Temp. Heat Index Dew Point Humidity Pressure Visibility Wind Dir Wind Speed Gust Speed Precip Events Conditions
12:54 AM 75.0 °F - 73.0 °F 94% 30.08 in 7.0 mi Calm Calm - N/A   Scattered Clouds
1:54 AM 73.9 °F - 72.0 °F 93% 30.07 in 6.0 mi Calm Calm - N/A   Clear
2:54 AM 73.0 °F - 72.0 °F 96% 30.06 in 4.0 mi Calm Calm - N/A   Clear
3:54 AM 73.0 °F - 72.0 °F 96% 30.05 in 2.5 mi Calm Calm - N/A   Clear
4:03 AM 73.4 °F - 71.6 °F 94% 30.08 in 3.0 mi Calm Calm - N/A   Clear
4:54 AM 73.0 °F - 71.1 °F 93% 30.05 in 3.0 mi Calm Calm - N/A   Clear
5:15 AM 71.6 °F - 69.8 °F 94% 30.08 in 1.8 mi Calm Calm - N/A   Clear
5:19 AM 71.6 °F - 69.8 °F 94% 30.08 in 0.8 mi Calm Calm - N/A   Clear
5:29 AM 71.6 °F - 69.8 °F 94% 30.08 in 1.5 mi Calm Calm - N/A   Clear
5:37 AM 71.6 °F - 69.8 °F 94% 30.08 in 2.0 mi Calm Calm - N/A   Clear
5:42 AM 71.6 °F - 69.8 °F 94% 30.08 in 1.5 mi Calm Calm - N/A   Partly Cloudy
5:49 AM 71.6 °F - 69.8 °F 94% 30.08 in 0.8 mi Calm Calm - N/A   Mist
5:54 AM 70.0 °F - 70.0 °F 100% 30.05 in 1.0 mi Calm Calm - N/A   Mist
6:03 AM 71.6 °F - 69.8 °F 94% 30.08 in 1.5 mi Calm Calm - N/A   Scattered Clouds
6:12 AM 69.8 °F - 69.8 °F 100% 30.08 in 2.0 mi South 3.5 mph - N/A   Partly Cloudy
6:16 AM 69.8 °F - 69.8 °F 100% 30.08 in 1.2 mi SSW 3.5 mph - N/A   Scattered Clouds
6:21 AM 71.6 °F - 69.8 °F 94% 30.08 in 1.0 mi SW 3.5 mph - N/A   Mist
6:28 AM 71.6 °F - 71.6 °F 100% 30.08 in 0.8 mi SSW 4.6 mph - N/A   Mist
6:39 AM 73.4 °F - 71.6 °F 94% 30.08 in 0.2 mi Calm Calm - N/A Fog Fog
6:49 AM 73.4 °F - 71.6 °F 94% 30.09 in 0.2 mi SSW 3.5 mph - N/A Fog Fog
6:54 AM 73.0 °F - 72.0 °F 96% 30.05 in 0.2 mi Calm Calm - N/A Fog Fog
7:54 AM 73.0 °F - 73.0 °F 100% 30.06 in 0.2 mi SSW 4.6 mph - N/A Fog Fog
7:59 AM 73.4 °F - 73.4 °F 100% 30.09 in 0.5 mi SSW 3.5 mph - N/A Fog Fog
8:06 AM 73.4 °F - 73.4 °F 100% 30.09 in 1.5 mi South 5.8 mph - N/A   Mostly Cloudy
8:14 AM 75.2 °F - 73.4 °F 94% 30.10 in 3.0 mi South 6.9 mph - N/A   Mostly Cloudy
8:22 AM 75.2 °F - 73.4 °F 94% 30.10 in 4.0 mi South 6.9 mph - N/A   Scattered Clouds
8:54 AM 77.0 °F - 75.0 °F 94% 30.07 in 7.0 mi SSW 5.8 mph - N/A   Clear
9:54 AM 84.0 °F 91.2 °F 73.9 °F 72% 30.06 in 10.0 mi SW 5.8 mph - N/A   Clear
10:54 AM 87.1 °F 95.4 °F 73.9 °F 65% 30.06 in 10.0 mi Variable 5.8 mph - N/A   Clear
11:54 AM 89.1 °F 97.0 °F 73.0 °F 59% 30.06 in 10.0 mi SW 9.2 mph - N/A   Clear
12:54 PM 90.0 °F 96.4 °F 71.1 °F 54% 30.04 in 10.0 mi SSW 6.9 mph - N/A   Clear
1:54 PM 90.0 °F 97.9 °F 73.0 °F 57% 30.01 in 10.0 mi Variable 5.8 mph - N/A   Scattered Clouds
2:54 PM 91.0 °F 100.4 °F 73.9 °F 57% 29.99 in 10.0 mi SW 11.5 mph - N/A   Scattered Clouds
3:54 PM 90.0 °F 99.0 °F 73.9 °F 59% 29.98 in 10.0 mi SW 9.2 mph 18.4 mph N/A   Partly Cloudy
4:54 PM 90.0 °F 99.0 °F 73.9 °F 59% 29.97 in 10.0 mi SW 9.2 mph - N/A   Clear
5:54 PM 88.0 °F 95.6 °F 73.0 °F 61% 29.97 in 10.0 mi SSW 9.2 mph - N/A   Clear
6:54 PM 84.9 °F 93.3 °F 75.0 °F 72% 29.97 in 10.0 mi SSW 3.5 mph - N/A   Partly Cloudy
7:54 PM 82.9 °F 88.0 °F 72.0 °F 69% 29.96 in 10.0 mi SW 6.9 mph - N/A   Clear
8:54 PM 81.0 °F 85.2 °F 72.0 °F 74% 29.97 in 10.0 mi SSW 5.8 mph - N/A   Clear
9:54 PM 79.0 °F - 73.0 °F 82% 29.99 in 10.0 mi SSW 3.5 mph - N/A   Clear
10:54 PM 79.0 °F - 72.0 °F 79% 30.00 in 10.0 mi SW 3.5 mph - N/A   Clear
11:54 PM 77.0 °F - 72.0 °F 84% 29.97 in 10.0 mi SSW 3.5 mph - N/A   Clear